Regional Weather Roundup
Issued by NWS

Home | Current Version | Previous Version | Text Only | Print | Product List | Glossary On
Versions: 1 2 3 4 5 6 7 8 9 10 11 12 13 14 15 16 17 18 19 20 21 22 23 24 25 26 27
000
ASUS43 KDMX 230007
RWRIA

WEATHER ROUNDUP FOR IOWA
NATIONAL WEATHER SERVICE DES MOINES IA
700 PM CDT WED OCT 22 2014

NOTE: "FAIR" INDICATES FEW OR NO CLOUDS BELOW 12,000 FEET WITH NO
SIGNIFICANT WEATHER AND/OR OBSTRUCTIONS TO VISIBILITY.

* - THESE STATIONS ARE NOT NWS STATIONS...THUS NOT UNDER NWS
QUALITY CONTROL.  THEY ALSO DO NOT REPORT WEATHER SUCH
AS PRECIPITATION OR FOG.

IAZ001>003-012>014-020>022-031>034-043>046-230100-
   NORTHWEST IOWA

CITY           SKY/WX    TMP DP  RH WIND       PRES   REMARKS
CARROLL *      CLEAR     61  48  63 SE10G18   30.05S
CHEROKEE *     CLOUDY    67  52  57 SW15G24   30.03R
DENISON *      CLEAR     64  52  63 SE15G24   29.99S
LE MARS *      LGT RAIN  61  59  94 S3        30.01F
ORANGE CITY *  RAIN      61  57  88 S6        30.01S
SHELDON *      LGT RAIN  59  59 100 SW7       30.01R
SIOUX CITY     RAIN      61  59  93 SW5       30.02R FOG
6HR MIN TEMP:  61; 6HR MAX TEMP:  76; 6HR PCP:  0.37;

SPENCER        MOCLDY    63  48  58 SE16      29.99R
6HR MIN TEMP:  63; 6HR MAX TEMP:  70;

STORM LAKE *   MOCLDY    63  50  63 SE18      30.02R
$$

IAZ055>058-069>071-079>083-090>094-230100-
   SOUTHWEST IOWA

CITY           SKY/WX    TMP DP  RH WIND       PRES   REMARKS
ATLANTIC *     CLEAR     64  50  59 SE8G14    30.04S
AUDUBON *      CLEAR     61  46  59 SE9       30.06F
CLARINDA *     CLEAR     66  52  59 SE6G13    30.08R
COUNCIL BLFS * CLEAR     66  55  68 SE12G18   30.00S
CRESTON *      CLEAR     61  48  63 SE10      30.11R
HARLAN  *      CLEAR     64  52  63 S13G18    30.06S
LAMONI         PTCLDY    60  47  61 SE10      30.12R
6HR MIN TEMP:  60; 6HR MAX TEMP:  66; 6HR PCP: TRACE;

RED OAK *      CLEAR     66  52  59 SE10      30.04S
SHENANDOAH *   CLEAR     68  54  60 SE10      30.04S
$$

IAZ047>049-059>061-072>074-084-230100-
   CENTRAL IOWA

CITY           SKY/WX    TMP DP  RH WIND       PRES   REMARKS
AMES           MOCLDY    59  45  59 SE10      30.11R
6HR MIN TEMP:  58; 6HR MAX TEMP:  64;

ANKENY *       PTCLDY    59  46  63 SE9       30.11S
CHARITON *     CLOUDY    59  46  63 SE8       30.13S
DES MOINES     MOCLDY    62  46  55 SE15      30.12R
6HR MIN TEMP:  59; 6HR MAX TEMP:  67; 6HR PCP: TRACE;

GRINNELL*      MOCLDY    56  42  60 SE9       30.16R
KNOXVILLE *    CLOUDY    59  45  58 SE10      30.13R
MARSHALLTOWN   CLOUDY    58  42  55 SE13G21   30.13R
6HR MIN TEMP:  57; 6HR MAX TEMP:  62;

PELLA *        PTCLDY    59  44  57 SE9       30.16R
PERRY *          N/A     59  48  67 SE8       30.09R
$$

IAZ004>006-015-016-023>025-035-036-230100-
   NORTH CENTRAL IOWA

CITY           SKY/WX    TMP DP  RH WIND       PRES   REMARKS
ALGONA *       CLEAR     59  46  63 SE18G24   30.05S
CLARION *      CLEAR     57  45  62 SE14G21   30.09R
ESTHERVILLE    MOCLDY    58  46  64 SE21      30.00S
6HR MIN TEMP:  58; 6HR MAX TEMP:  66;

FORT DODGE *   MOCLDY    61  45  55 SE8       30.08R
MASON CITY     CLOUDY    57  42  57 SE15      30.11S
6HR MIN TEMP:  55; 6HR MAX TEMP:  62;

FOREST CITY *  CLEAR     55  45  67 SE13      30.09R
IOWA FALLS *   CLOUDY    57  43  58 SE10      30.12S
$$

IAZ007>011-017>019-026>030-037>042-050>054-066-230100-
   NORTHEAST IOWA

CITY           SKY/WX    TMP DP  RH WIND       PRES   REMARKS
CEDAR RAPIDS   CLEAR     53  40  61 SE8       30.18R
6HR MIN TEMP:  52; 6HR MAX TEMP:  60;

CHARLES CITY * CLOUDY    57  41  54 SE12G21   30.14R
CLINTON *      CLEAR     48  36  61 SE7       30.24S
DECORAH *      CLOUDY    52  37  58 SE8       30.16R
DUBUQUE        CLEAR     47  37  68 SE8       30.21S
6HR MIN TEMP:  47; 6HR MAX TEMP:  58;

MONTICELLO *   CLEAR     50  39  66 SE6       30.20R
OELWEIN *      CLOUDY    52  39  62 SE8       30.17S
WATERLOO       CLOUDY    57  40  52 SE14      30.15R
6HR MIN TEMP:  57; 6HR MAX TEMP:  61;

$$

IAZ064-065-067-068-078-230100-
   EAST CENTRAL IOWA

CITY           SKY/WX    TMP DP  RH WIND       PRES   REMARKS
DAVENPORT      CLEAR     51  34  52 SE7       30.21S
6HR MIN TEMP:  48; 6HR MAX TEMP:  61;

IOWA CITY      CLEAR     52  39  61 SE7       30.21R
6HR MIN TEMP:  52; 6HR MAX TEMP:  60;

MT. PLEASANT * CLEAR     51  38  60 SE5       30.20R
MUSCATINE *    CLEAR     55  37  50 SE6       30.21R
QUAD CITIES    CLEAR     48  36  63 SE5       30.21R
6HR MIN TEMP:  48; 6HR MAX TEMP:  61;

$$

IAZ062-063-075>077-085>089-095>099-230100-
   SOUTHEAST IOWA

CITY           SKY/WX    TMP DP  RH WIND       PRES   REMARKS
BURLINGTON     CLEAR     51  41  68 CALM      30.20R
6HR MIN TEMP:  50; 6HR MAX TEMP:  62;

FAIRFIELD *    CLEAR     50  39  66 SE7       30.19R
FORT MADISON * CLEAR     54  43  66 SE3       30.21R
KEOKUK *       CLEAR     55  43  62 SE5       30.19R
OSKALOOSA *      N/A     53  41  64 SE7       30.17R
CENTERVILLE *  CLEAR     55  45  67 SE6       30.17R
OTTUMWA        CLEAR     49  41  74 SE9       30.16
6HR MIN TEMP:  48; 6HR MAX TEMP:  63;

WASHINGTON *   CLEAR     54  39  58 SE7       30.19R
$$

ABBREVIATIONS USED IN REMARKS
   TC - TEMPERATURES IN CELSIUS
  WCI - WIND CHILL INDEX
   HX - HEAT INDEX
  VSB - VISIBILITY
$$




USA.gov is the U.S. government's official web portal to all federal, state and local government web resources and services.